Time,TemperatureF,DewpointF,PressureIn,WindDirection,WindDirectionDegrees,WindSpeedMPH,WindSpeedGustMPH,Humidity,HourlyPrecipIn,Conditions,Clouds,dailyrainin,SoftwareType,DateUTC
2013-04-26 00:00:00,53.5,0.0,30.14,West,276,5.0,15.0,0,0.00,,,0.00,Weather View 32 v70,2013-04-26 07:00:00,
2013-04-26 00:10:00,53.5,0.0,30.14,SW,219,4.0,15.0,0,0.00,,,0.00,Weather View 32 v70,2013-04-26 07:10:00,
2013-04-26 00:20:00,53.3,0.0,30.14,SSW,195,7.0,14.0,0,0.00,,,0.00,Weather View 32 v70,2013-04-26 07:20:00,
2013-04-26 00:30:00,53.1,0.0,30.14,WSW,250,5.0,14.0,0,0.00,,,0.00,Weather View 32 v70,2013-04-26 07:30:00,
2013-04-26 00:40:00,53.1,0.0,30.14,SW,222,6.0,16.0,0,0.00,,,0.00,Weather View 32 v70,2013-04-26 07:40:00,
2013-04-26 00:50:00,52.9,0.0,30.13,West,264,2.0,16.0,0,0.00,,,0.00,Weather View 32 v70,2013-04-26 07:50:00,
2013-04-26 01:00:00,53.5,0.0,30.14,SW,226,5.0,16.0,0,0.00,,,0.00,Weather View 32 v70,2013-04-26 08:00:00,
2013-04-26 01:10:00,52.9,0.0,30.13,West,278,7.0,16.0,0,0.00,,,0.00,Weather View 32 v70,2013-04-26 08:10:00,
2013-04-26 01:20:00,53.0,0.0,30.14,West,267,4.0,16.0,0,0.00,,,0.00,Weather View 32 v70,2013-04-26 08:20:00,
2013-04-26 01:30:00,52.9,0.0,30.14,SW,232,7.0,16.0,0,0.00,,,0.00,Weather View 32 v70,2013-04-26 08:30:00,
2013-04-26 01:40:00,53.1,0.0,30.14,WSW,256,3.0,13.0,0,0.00,,,0.00,Weather View 32 v70,2013-04-26 08:40:00,
2013-04-26 01:50:00,53.1,0.0,30.14,WNW,291,2.0,13.0,0,0.00,,,0.00,Weather View 32 v70,2013-04-26 08:50:00,
2013-04-26 02:10:00,53.4,0.0,30.14,WSW,257,0.0,10.0,0,0.00,,,0.00,Weather View 32 v70,2013-04-26 09:10:00,
2013-04-26 02:20:00,52.8,0.0,30.14,West,266,3.0,10.0,0,0.00,,,0.00,Weather View 32 v70,2013-04-26 09:20:00,
2013-04-26 02:30:00,52.9,0.0,30.14,West,260,3.0,10.0,0,0.00,,,0.00,Weather View 32 v70,2013-04-26 09:30:00,
2013-04-26 02:40:00,52.8,0.0,30.14,WSW,255,2.0,10.0,0,0.00,,,0.00,Weather View 32 v70,2013-04-26 09:40:00,
2013-04-26 02:50:00,52.3,0.0,30.14,West,264,2.0,10.0,0,0.00,,,0.00,Weather View 32 v70,2013-04-26 09:50:00,
2013-04-26 03:00:00,52.8,0.0,30.14,West,273,4.0,9.0,0,0.00,,,0.00,Weather View 32 v70,2013-04-26 10:00:00,
2013-04-26 03:10:00,52.0,0.0,30.14,WSW,252,3.0,8.0,0,0.00,,,0.00,Weather View 32 v70,2013-04-26 10:10:00,
2013-04-26 03:20:00,52.4,0.0,30.15,SW,229,5.0,8.0,0,0.00,,,0.00,Weather View 32 v70,2013-04-26 10:20:00,
2013-04-26 03:30:00,52.5,0.0,30.15,WSW,242,3.0,8.0,0,0.00,,,0.00,Weather View 32 v70,2013-04-26 10:30:00,
2013-04-26 03:40:00,52.2,0.0,30.15,SSW,194,2.0,7.0,0,0.00,,,0.00,Weather View 32 v70,2013-04-26 10:40:00,
2013-04-26 03:50:00,52.2,0.0,30.15,SW,218,0.0,7.0,0,0.00,,,0.00,Weather View 32 v70,2013-04-26 10:50:00,
2013-04-26 04:00:00,51.9,0.0,30.16,SSW,200,3.0,7.0,0,0.00,,,0.00,Weather View 32 v70,2013-04-26 11:00:00,
2013-04-26 04:10:00,52.0,0.0,30.16,WSW,255,5.0,7.0,0,0.00,,,0.00,Weather View 32 v70,2013-04-26 11:10:00,
2013-04-26 04:20:00,51.5,0.0,30.16,WSW,249,0.0,7.0,0,0.00,,,0.00,Weather View 32 v70,2013-04-26 11:20:00,
2013-04-26 04:30:00,51.3,0.0,30.16,WSW,243,1.0,7.0,0,0.00,,,0.00,Weather View 32 v70,2013-04-26 11:30:00,
2013-04-26 04:40:00,51.2,0.0,30.16,SW,217,2.0,7.0,0,0.00,,,0.00,Weather View 32 v70,2013-04-26 11:40:00,
2013-04-26 04:50:00,51.2,0.0,30.16,WSW,255,4.0,8.0,0,0.00,,,0.00,Weather View 32 v70,2013-04-26 11:50:00,
2013-04-26 05:00:00,51.4,0.0,30.17,SW,222,3.0,8.0,0,0.00,,,0.00,Weather View 32 v70,2013-04-26 12:00:00,
2013-04-26 05:10:00,51.4,0.0,30.17,SSW,194,1.0,8.0,0,0.00,,,0.00,Weather View 32 v70,2013-04-26 12:10:00,
2013-04-26 05:20:00,51.5,0.0,30.17,SSW,212,2.0,8.0,0,0.00,,,0.00,Weather View 32 v70,2013-04-26 12:20:00,
2013-04-26 05:30:00,51.5,0.0,30.17,SW,217,4.0,8.0,0,0.00,,,0.00,Weather View 32 v70,2013-04-26 12:30:00,
2013-04-26 05:40:00,51.4,0.0,30.18,West,266,1.0,8.0,0,0.00,,,0.00,Weather View 32 v70,2013-04-26 12:40:00,
2013-04-26 05:50:00,51.2,0.0,30.18,WSW,239,0.0,8.0,0,0.00,,,0.00,Weather View 32 v70,2013-04-26 12:50:00,
2013-04-26 06:00:00,51.2,0.0,30.18,WSW,257,0.0,6.0,0,0.00,,,0.00,Weather View 32 v70,2013-04-26 13:00:00,
2013-04-26 06:10:00,50.9,0.0,30.18,SSW,200,0.0,5.0,0,0.00,,,0.00,Weather View 32 v70,2013-04-26 13:10:00,
2013-04-26 06:15:00,50.9,0.0,30.18,SSW,200,0.0,5.0,0,0.00,,,0.00,Weather View 32 v70,2013-04-26 13:15:00,
2013-04-26 06:30:00,50.2,0.0,30.19,SSW,200,0.0,5.0,0,0.00,,,0.00,Weather View 32 v70,2013-04-26 13:30:00,
2013-04-26 06:40:00,50.1,0.0,30.20,SSW,200,0.0,4.0,0,0.00,,,0.00,Weather View 32 v70,2013-04-26 13:40:00,
2013-04-26 06:50:00,49.9,0.0,30.20,SSW,200,0.0,4.0,0,0.00,,,0.00,Weather View 32 v70,2013-04-26 13:50:00,
2013-04-26 07:00:00,49.9,0.0,30.20,SSW,200,0.0,4.0,0,0.00,,,0.00,Weather View 32 v70,2013-04-26 14:00:00,
2013-04-26 07:10:00,49.9,0.0,30.20,SSW,200,0.0,2.0,0,0.00,,,0.00,Weather View 32 v70,2013-04-26 14:10:00,
2013-04-26 07:16:00,49.9,0.0,30.20,SSW,200,0.0,2.0,0,0.00,,,0.00,Weather View 32 v70,2013-04-26 14:16:00,
2013-04-26 07:30:00,49.9,0.0,30.20,SSW,200,0.0,0.0,0,0.00,,,0.00,Weather View 32 v70,2013-04-26 14:30:00,
2013-04-26 07:40:00,49.9,0.0,30.20,SSW,200,0.0,0.0,0,0.00,,,0.00,Weather View 32 v70,2013-04-26 14:40:00,
2013-04-26 07:50:00,49.9,0.0,30.20,SSW,200,0.0,0.0,0,0.00,,,0.00,Weather View 32 v70,2013-04-26 14:50:00,
2013-04-26 08:00:00,49.9,0.0,30.20,SSW,200,0.0,0.0,0,0.00,,,0.00,Weather View 32 v70,2013-04-26 15:00:00,
2013-04-26 08:10:00,49.9,0.0,30.20,SSW,200,0.0,0.0,0,0.00,,,0.00,Weather View 32 v70,2013-04-26 15:10:00,
2013-04-26 08:16:00,49.9,0.0,30.20,SSW,200,0.0,0.0,0,0.00,,,0.00,Weather View 32 v70,2013-04-26 15:16:00,
2013-04-26 08:30:00,49.9,0.0,30.20,SSW,200,0.0,0.0,0,0.00,,,0.00,Weather View 32 v70,2013-04-26 15:30:00,
2013-04-26 08:40:00,49.9,0.0,30.20,SSW,200,0.0,0.0,0,0.00,,,0.00,Weather View 32 v70,2013-04-26 15:40:00,
2013-04-26 08:50:00,49.9,0.0,30.20,SSW,200,0.0,0.0,0,0.00,,,0.00,Weather View 32 v70,2013-04-26 15:50:00,
2013-04-26 09:00:00,49.9,0.0,30.20,SSW,200,0.0,0.0,0,0.00,,,0.00,Weather View 32 v70,2013-04-26 16:00:00,
2013-04-26 09:10:00,49.9,0.0,30.20,SSW,200,0.0,0.0,0,0.00,,,0.00,Weather View 32 v70,2013-04-26 16:10:00,
2013-04-26 09:17:00,49.9,0.0,30.20,SSW,200,0.0,0.0,0,0.00,,,0.00,Weather View 32 v70,2013-04-26 16:17:00,
2013-04-26 09:30:00,49.9,0.0,30.20,SSW,200,0.0,0.0,0,0.00,,,0.00,Weather View 32 v70,2013-04-26 16:30:00,
2013-04-26 09:40:00,49.9,0.0,30.20,SSW,200,0.0,0.0,0,0.00,,,0.00,Weather View 32 v70,2013-04-26 16:40:00,
2013-04-26 09:50:00,49.9,0.0,30.20,SSW,200,0.0,0.0,0,0.00,,,0.00,Weather View 32 v70,2013-04-26 16:50:00,
2013-04-26 10:00:00,49.9,0.0,30.20,SSW,200,0.0,0.0,0,0.00,,,0.00,Weather View 32 v70,2013-04-26 17:00:00,
2013-04-26 10:10:00,49.9,0.0,30.20,SSW,200,0.0,0.0,0,0.00,,,0.00,Weather View 32 v70,2013-04-26 17:10:00,
2013-04-26 10:17:00,49.9,0.0,30.20,SSW,200,0.0,0.0,0,0.00,,,0.00,Weather View 32 v70,2013-04-26 17:17:00,
2013-04-26 10:30:00,49.9,0.0,30.20,SSW,200,0.0,0.0,0,0.00,,,0.00,Weather View 32 v70,2013-04-26 17:30:00,
2013-04-26 10:40:00,49.9,0.0,30.20,SSW,200,0.0,0.0,0,0.00,,,0.00,Weather View 32 v70,2013-04-26 17:40:00,
2013-04-26 10:50:00,49.9,0.0,30.20,SSW,200,0.0,0.0,0,0.00,,,0.00,Weather View 32 v70,2013-04-26 17:50:00,
2013-04-26 11:00:00,49.9,0.0,30.20,SSW,200,0.0,0.0,0,0.00,,,0.00,Weather View 32 v70,2013-04-26 18:00:00,
2013-04-26 11:10:00,49.9,0.0,30.20,SSW,200,0.0,0.0,0,0.00,,,0.00,Weather View 32 v70,2013-04-26 18:10:00,
2013-04-26 11:18:00,49.9,0.0,30.20,SSW,200,0.0,0.0,0,0.00,,,0.00,Weather View 32 v70,2013-04-26 18:18:00,
2013-04-26 11:30:00,49.9,0.0,30.20,SSW,200,0.0,0.0,0,0.00,,,0.00,Weather View 32 v70,2013-04-26 18:30:00,
2013-04-26 11:40:00,49.9,0.0,30.20,SSW,200,0.0,0.0,0,0.00,,,0.00,Weather View 32 v70,2013-04-26 18:40:00,
2013-04-26 11:50:00,49.9,0.0,30.20,SSW,200,0.0,0.0,0,0.00,,,0.00,Weather View 32 v70,2013-04-26 18:50:00,
2013-04-26 12:00:00,49.9,0.0,30.20,SSW,200,0.0,0.0,0,0.00,,,0.00,Weather View 32 v70,2013-04-26 19:00:00,
2013-04-26 12:10:00,49.9,0.0,30.20,SSW,200,0.0,0.0,0,0.00,,,0.00,Weather View 32 v70,2013-04-26 19:10:00,
2013-04-26 12:18:00,49.9,0.0,30.20,SSW,200,0.0,0.0,0,0.00,,,0.00,Weather View 32 v70,2013-04-26 19:18:00,
2013-04-26 12:30:00,49.9,0.0,30.20,SSW,200,0.0,0.0,0,0.00,,,0.00,Weather View 32 v70,2013-04-26 19:30:00,
2013-04-26 12:40:00,49.9,0.0,30.20,SSW,200,0.0,0.0,0,0.00,,,0.00,Weather View 32 v70,2013-04-26 19:40:00,
2013-04-26 12:50:00,49.9,0.0,30.20,SSW,200,0.0,0.0,0,0.00,,,0.00,Weather View 32 v70,2013-04-26 19:50:00,
2013-04-26 13:00:00,49.9,0.0,30.20,SSW,200,0.0,0.0,0,0.00,,,0.00,Weather View 32 v70,2013-04-26 20:00:00,
2013-04-26 13:10:00,49.9,0.0,30.20,SSW,200,0.0,0.0,0,0.00,,,0.00,Weather View 32 v70,2013-04-26 20:10:00,
2013-04-26 13:19:00,49.9,0.0,30.20,SSW,200,0.0,0.0,0,0.00,,,0.00,Weather View 32 v70,2013-04-26 20:19:00,
2013-04-26 13:30:00,49.9,0.0,30.20,SSW,200,0.0,0.0,0,0.00,,,0.00,Weather View 32 v70,2013-04-26 20:30:00,
2013-04-26 13:40:00,49.9,0.0,30.20,SSW,200,0.0,0.0,0,0.00,,,0.00,Weather View 32 v70,2013-04-26 20:40:00,
2013-04-26 13:50:00,49.9,0.0,30.20,SSW,200,0.0,0.0,0,0.00,,,0.00,Weather View 32 v70,2013-04-26 20:50:00,
2013-04-26 14:00:00,49.9,0.0,30.20,SSW,200,0.0,0.0,0,0.00,,,0.00,Weather View 32 v70,2013-04-26 21:00:00,
2013-04-26 14:10:00,49.9,0.0,30.20,SSW,200,0.0,0.0,0,0.00,,,0.00,Weather View 32 v70,2013-04-26 21:10:00,
2013-04-26 14:20:00,49.9,0.0,30.20,SSW,200,0.0,0.0,0,0.00,,,0.00,Weather View 32 v70,2013-04-26 21:20:00,
2013-04-26 14:30:00,49.9,0.0,30.20,SSW,200,0.0,0.0,0,0.00,,,0.00,Weather View 32 v70,2013-04-26 21:30:00,
2013-04-26 14:40:00,49.9,0.0,30.20,SSW,200,0.0,0.0,0,0.00,,,0.00,Weather View 32 v70,2013-04-26 21:40:00,
2013-04-26 14:50:00,49.9,0.0,30.20,SSW,200,0.0,0.0,0,0.00,,,0.00,Weather View 32 v70,2013-04-26 21:50:00,
2013-04-26 15:00:00,49.9,0.0,30.20,SSW,200,0.0,0.0,0,0.00,,,0.00,Weather View 32 v70,2013-04-26 22:00:00,
2013-04-26 15:10:00,49.9,0.0,30.20,SSW,200,0.0,0.0,0,0.00,,,0.00,Weather View 32 v70,2013-04-26 22:10:00,
2013-04-26 15:20:00,49.9,0.0,30.20,SSW,200,0.0,0.0,0,0.00,,,0.00,Weather View 32 v70,2013-04-26 22:20:00,
2013-04-26 15:30:00,49.9,0.0,30.20,SSW,200,0.0,0.0,0,0.00,,,0.00,Weather View 32 v70,2013-04-26 22:30:00,
2013-04-26 15:40:00,49.9,0.0,30.20,SSW,200,0.0,0.0,0,0.00,,,0.00,Weather View 32 v70,2013-04-26 22:40:00,
2013-04-26 15:50:00,49.9,0.0,30.20,SSW,200,0.0,0.0,0,0.00,,,0.00,Weather View 32 v70,2013-04-26 22:50:00,
2013-04-26 16:00:00,49.9,0.0,30.20,SSW,200,0.0,0.0,0,0.00,,,0.00,Weather View 32 v70,2013-04-26 23:00:00,
2013-04-26 16:10:00,49.9,0.0,30.20,SSW,200,0.0,0.0,0,0.00,,,0.00,Weather View 32 v70,2013-04-26 23:10:00,
2013-04-26 16:21:00,49.9,0.0,30.20,SSW,200,0.0,0.0,0,0.00,,,0.00,Weather View 32 v70,2013-04-26 23:21:00,
2013-04-26 16:30:00,49.9,0.0,30.20,SSW,200,0.0,0.0,0,0.00,,,0.00,Weather View 32 v70,2013-04-26 23:30:00,
2013-04-26 16:40:00,49.9,0.0,30.20,SSW,200,0.0,0.0,0,0.00,,,0.00,Weather View 32 v70,2013-04-26 23:40:00,
2013-04-26 16:50:00,49.9,0.0,30.20,SSW,200,0.0,0.0,0,0.00,,,0.00,Weather View 32 v70,2013-04-26 23:50:00,
2013-04-26 17:10:00,49.9,0.0,30.20,SSW,200,0.0,0.0,0,0.00,,,0.00,Weather View 32 v70,2013-04-27 00:10:00,
2013-04-26 17:20:00,49.9,0.0,30.20,SSW,200,0.0,0.0,0,0.00,,,0.00,Weather View 32 v70,2013-04-27 00:20:00,
2013-04-26 17:30:00,49.9,0.0,30.20,SSW,200,0.0,0.0,0,0.00,,,0.00,Weather View 32 v70,2013-04-27 00:30:00,
2013-04-26 17:40:00,49.9,0.0,30.20,SSW,200,0.0,0.0,0,0.00,,,0.00,Weather View 32 v70,2013-04-27 00:40:00,
2013-04-26 17:50:00,49.9,0.0,30.20,SSW,200,0.0,0.0,0,0.00,,,0.00,Weather View 32 v70,2013-04-27 00:50:00,
2013-04-26 18:00:00,49.9,0.0,30.20,SSW,200,0.0,0.0,0,0.00,,,0.00,Weather View 32 v70,2013-04-27 01:00:00,
2013-04-26 18:10:00,49.9,0.0,30.20,SSW,200,0.0,0.0,0,0.00,,,0.00,Weather View 32 v70,2013-04-27 01:10:00,
2013-04-26 18:20:00,49.9,0.0,30.20,SSW,200,0.0,0.0,0,0.00,,,0.00,Weather View 32 v70,2013-04-27 01:20:00,
2013-04-26 18:30:00,49.9,0.0,30.20,SSW,200,0.0,0.0,0,0.00,,,0.00,Weather View 32 v70,2013-04-27 01:30:00,
2013-04-26 18:40:00,49.9,0.0,30.20,SSW,200,0.0,0.0,0,0.00,,,0.00,Weather View 32 v70,2013-04-27 01:40:00,
2013-04-26 18:50:00,49.9,0.0,30.20,SSW,200,0.0,0.0,0,0.00,,,0.00,Weather View 32 v70,2013-04-27 01:50:00,
2013-04-26 19:00:00,49.9,0.0,30.20,SSW,200,0.0,0.0,0,0.00,,,0.00,Weather View 32 v70,2013-04-27 02:00:00,
2013-04-26 19:10:00,49.9,0.0,30.20,SSW,200,0.0,0.0,0,0.00,,,0.00,Weather View 32 v70,2013-04-27 02:10:00,
2013-04-26 19:20:00,49.9,0.0,30.20,SSW,200,0.0,0.0,0,0.00,,,0.00,Weather View 32 v70,2013-04-27 02:20:00,
2013-04-26 19:30:00,49.9,0.0,30.20,SSW,200,0.0,0.0,0,0.00,,,0.00,Weather View 32 v70,2013-04-27 02:30:00,
2013-04-26 19:40:00,49.9,0.0,30.20,SSW,200,0.0,0.0,0,0.00,,,0.00,Weather View 32 v70,2013-04-27 02:40:00,
2013-04-26 19:50:00,49.9,0.0,30.20,SSW,200,0.0,0.0,0,0.00,,,0.00,Weather View 32 v70,2013-04-27 02:50:00,
2013-04-26 20:00:00,49.9,0.0,30.20,SSW,200,0.0,0.0,0,0.00,,,0.00,Weather View 32 v70,2013-04-27 03:00:00,
2013-04-26 20:10:00,49.9,0.0,30.20,SSW,200,0.0,0.0,0,0.00,,,0.00,Weather View 32 v70,2013-04-27 03:10:00,
2013-04-26 20:20:00,49.9,0.0,30.20,SSW,200,0.0,0.0,0,0.00,,,0.00,Weather View 32 v70,2013-04-27 03:20:00,
2013-04-26 20:30:00,49.9,0.0,30.20,SSW,200,0.0,0.0,0,0.00,,,0.00,Weather View 32 v70,2013-04-27 03:30:00,
2013-04-26 20:40:00,49.9,0.0,30.20,SSW,200,0.0,0.0,0,0.00,,,0.00,Weather View 32 v70,2013-04-27 03:40:00,
2013-04-26 20:50:00,49.9,0.0,30.20,SSW,200,0.0,0.0,0,0.00,,,0.00,Weather View 32 v70,2013-04-27 03:50:00,
2013-04-26 21:00:00,49.9,0.0,30.20,SSW,200,0.0,0.0,0,0.00,,,0.00,Weather View 32 v70,2013-04-27 04:00:00,
2013-04-26 21:10:00,49.9,0.0,30.20,SSW,200,0.0,0.0,0,0.00,,,0.00,Weather View 32 v70,2013-04-27 04:10:00,
2013-04-26 21:20:00,49.9,0.0,30.20,SSW,200,0.0,0.0,0,0.00,,,0.00,Weather View 32 v70,2013-04-27 04:20:00,
2013-04-26 21:30:00,49.9,0.0,30.20,SSW,200,0.0,0.0,0,0.00,,,0.00,Weather View 32 v70,2013-04-27 04:30:00,
2013-04-26 21:40:00,49.9,0.0,30.20,SSW,200,0.0,0.0,0,0.00,,,0.00,Weather View 32 v70,2013-04-27 04:40:00,
2013-04-26 21:50:00,49.9,0.0,30.20,SSW,200,0.0,0.0,0,0.00,,,0.00,Weather View 32 v70,2013-04-27 04:50:00,
2013-04-26 22:00:00,49.9,0.0,30.20,SSW,200,0.0,0.0,0,0.00,,,0.00,Weather View 32 v70,2013-04-27 05:00:00,
2013-04-26 22:10:00,49.9,0.0,30.20,SSW,200,0.0,0.0,0,0.00,,,0.00,Weather View 32 v70,2013-04-27 05:10:00,
2013-04-26 22:20:00,49.9,0.0,30.20,SSW,200,0.0,0.0,0,0.00,,,0.00,Weather View 32 v70,2013-04-27 05:20:00,
2013-04-26 22:30:00,49.9,0.0,30.20,SSW,200,0.0,0.0,0,0.00,,,0.00,Weather View 32 v70,2013-04-27 05:30:00,
2013-04-26 22:40:00,49.9,0.0,30.20,SSW,200,0.0,0.0,0,0.00,,,0.00,Weather View 32 v70,2013-04-27 05:40:00,
2013-04-26 22:50:00,49.9,0.0,30.20,SSW,200,0.0,0.0,0,0.00,,,0.00,Weather View 32 v70,2013-04-27 05:50:00,
2013-04-26 23:00:00,49.9,0.0,30.20,SSW,200,0.0,0.0,0,0.00,,,0.00,Weather View 32 v70,2013-04-27 06:00:00,
2013-04-26 23:10:00,49.9,0.0,30.20,SSW,200,0.0,0.0,0,0.00,,,0.00,Weather View 32 v70,2013-04-27 06:10:00,
2013-04-26 23:20:00,49.9,0.0,30.20,SSW,200,0.0,0.0,0,0.00,,,0.00,Weather View 32 v70,2013-04-27 06:20:00,
2013-04-26 23:30:00,49.9,0.0,30.20,SSW,200,0.0,0.0,0,0.00,,,0.00,Weather View 32 v70,2013-04-27 06:30:00,
2013-04-26 23:40:00,49.9,0.0,30.20,SSW,200,0.0,0.0,0,0.00,,,0.00,Weather View 32 v70,2013-04-27 06:40:00,
2013-04-26 23:50:00,49.9,0.0,30.20,SSW,200,0.0,0.0,0,0.00,,,0.00,Weather View 32 v70,2013-04-27 06:50:00,